QPF
0.03 0.04 0.04 0.04 0.04 0.03 0.02 0.03 0.04 0.03 0.02 0.02 0.02 0.06 0.06 0.04 0.04 0.04 0.05 0.06 0.05 0.05 0.06 0.05 0.06 0.11 0.12 0.10 0.06 0.03 0.03 0.03 0.03 0.04 0.05 0.04 0.03 0.02
0.03 0.04 0.03 0.03 0.04 0.03 0.03 0.03 0.02 0.03 0.02 0.03 0.03 0.06 0.07 0.05 0.03 0.03 0.04 0.04 0.05 0.05 0.05 0.04 0.04 0.07 0.09 0.09 0.05 0.02 0.02 0.02 0.02 0.02 0.03 0.05 0.03 0.02
0.02 0.02 0.03 0.03 0.03 0.03 0.03 0.02 0.01 0.01 0.01 0.02 0.03 0.04 0.06 0.06 0.04 0.03 0.02 0.03 0.04 0.03 0.04 0.03 0.03 0.03 0.05 0.07 0.05 0.03 0.02 0.01 0.01 0.02 0.03 0.10 0.08 0.04
0.02 0.02 0.02 0.02 0.02 0.02 0.02 0.02 0.01 0.01 0.01 0.01 0.02 0.02 0.04 0.04 0.04 0.02 0.02 0.02 0.03 0.02 0.02 0.02 0.02 0.02 0.03 0.04 0.04 0.03 0.02 0.01 0.01 0.02 0.04 0.10 0.12 0.11
0.01 0.01 0.01 0.01 0.01 0.01 0.01 0.01 0.01 0.01 0.01 0.01 0.01 0.02 0.02 0.03 0.03 0.03 0.03 0.02 0.02 0.02 0.01 0.01 0.01 0.02 0.02 0.03 0.03 0.02 0.02 0.02 0.02 0.04 0.05 0.11 0.19 0.20
0.00 0.01 0.01 0.01 0.01 0.00 0.01 0.01 0.01 0.01 0.01 0.01 0.01 0.01 0.01 0.02 0.02 0.03 0.02 0.02 0.02 0.02 0.01 0.01 0.02 0.02 0.02 0.02 0.03 0.02 0.02 0.01 0.02 0.07 0.10 0.12 0.20 0.23
0.01 0.01 0.01 0.01 0.01 0.01 0.01 0.01 0.01 0.01 0.01 0.01 0.01 0.01 0.01 0.01 0.02 0.04 0.02 0.02 0.03 0.01 0.00 0.01 0.03 0.03 0.03 0.03 0.03 0.03 0.02 0.03 0.03 0.07 0.14 0.16 0.18 0.23
0.01 0.02 0.01 0.00 0.00 0.01 0.01 0.01 0.01 0.01 0.00 0.01 0.01 0.01 0.00 0.01 0.03 0.04 0.03 0.03 0.03 0.01 0.00 0.01 0.02 0.03 0.03 0.04 0.05 0.03 0.03 0.06 0.07 0.08 0.14 0.18 0.17 0.20
0.02 0.02 0.02 0.01 0.01 0.01 0.01 0.02 0.01 0.01 0.00 0.01 0.01 0.00 0.00 0.01 0.02 0.03 0.02 0.03 0.03 0.01 0.01 0.01 0.02 0.03 0.02 0.02 0.03 0.03 0.04 0.06 0.09 0.11 0.14 0.15 0.14 0.14
0.01 0.01 0.02 0.01 0.01 0.01 0.01 0.01 0.01 0.01 0.01 0.01 0.01 0.00 0.00 0.01 0.02 0.03 0.01 0.02 0.03 0.02 0.01 0.01 0.02 0.02 0.02 0.02 0.03 0.03 0.03 0.05 0.06 0.08 0.10 0.11 0.09 0.08
0.01 0.01 0.01 0.01 0.01 0.01 0.01 0.01 0.01 0.01 0.00 0.01 0.01 0.01 0.01 0.01 0.02 0.03 0.02 0.03 0.03 0.02 0.01 0.00 0.00 0.01 0.01 0.01 0.02 0.02 0.02 0.04 0.05 0.05 0.06 0.06 0.04 0.04
0.02 0.01 0.01 0.01 0.01 0.01 0.01 0.01 0.01 0.01 0.00 0.00 0.01 0.01 0.01 0.01 0.02 0.02 0.01 0.02 0.03 0.02 0.01 0.01 0.01 0.00 0.01 0.01 0.01 0.01 0.01 0.02 0.03 0.03 0.04 0.04 0.02 0.01
0.01 0.01 0.01 0.01 0.01 0.02 0.01 0.01 0.01 0.01 0.01 0.01 0.01 0.01 0.01 0.01 0.02 0.03 0.01 0.01 0.02 0.02 0.01 0.01 0.01 0.01 0.01 0.01 0.00 0.01 0.01 0.01 0.01 0.01 0.01 0.02 0.01 0.01
0.02 0.01 0.01 0.01 0.01 0.01 0.01 0.01 0.01 0.01 0.01 0.01 0.01 0.00 0.00 0.01 0.02 0.03 0.02 0.01 0.02 0.02 0.00 0.00 0.01 0.01 0.01 0.01 0.01 0.00 0.00 0.01 0.01 0.01 0.01 0.01 0.01 0.01
0.02 0.02 0.02 0.01 0.01 0.01 0.01 0.01 0.01 0.01 0.01 0.01 0.01 0.01 0.01 0.01 0.02 0.04 0.03 0.02 0.01 0.02 0.00 0.00 0.01 0.01 0.02 0.02 0.01 0.01 0.01 0.01 0.01 0.01 0.01 0.01 0.00 0.00
0.02 0.02 0.02 0.02 0.02 0.02 0.02 0.01 0.01 0.01 0.01 0.01 0.00 0.00 0.01 0.01 0.02 0.03 0.02 0.02 0.01 0.02 0.01 0.00 0.01 0.01 0.01 0.01 0.01 0.01 0.01 0.01 0.01 0.01 0.01 0.01 0.01 0.00
0.02 0.02 0.02 0.02 0.02 0.02 0.02 0.02 0.01 0.01 0.01 0.01 0.01 0.00 0.01 0.01 0.01 0.03 0.02 0.01 0.01 0.01 0.01 0.00 0.01 0.01 0.01 0.01 0.01 0.02 0.02 0.01 0.01 0.01 0.01 0.01 0.01 0.00
0.03 0.02 0.03 0.03 0.03 0.03 0.03 0.02 0.02 0.01 0.01 0.01 0.01 0.00 0.00 0.01 0.01 0.02 0.02 0.01 0.01 0.01 0.01 0.01 0.01 0.01 0.01 0.01 0.01 0.02 0.02 0.02 0.01 0.01 0.01 0.01 0.01 0.00
0.04 0.03 0.03 0.04 0.04 0.03 0.03 0.02 0.02 0.01 0.01 0.01 0.01 0.01 0.01 0.01 0.01 0.01 0.02 0.01 0.01 0.01 0.01 0.01 0.01 0.02 0.02 0.01 0.01 0.02 0.03 0.03 0.02 0.03 0.02 0.01 0.01 0.00
0.05 0.06 0.06 0.06 0.06 0.05 0.05 0.04 0.03 0.02 0.02 0.01 0.01 0.01 0.01 0.01 0.01 0.01 0.01 0.01 0.01 0.01 0.01 0.00 0.01 0.02 0.02 0.02 0.01 0.01 0.02 0.02 0.03 0.03 0.03 0.02 0.02 0.01
0.04 0.04 0.05 0.06 0.05 0.05 0.05 0.05 0.04 0.04 0.04 0.03 0.03 0.02 0.02 0.02 0.02 0.02 0.01 0.01 0.01 0.01 0.01 0.01 0.01 0.01 0.01 0.02 0.01 0.01 0.01 0.02 0.02 0.02 0.02 0.02 0.02 0.01
0.05 0.04 0.04 0.04 0.04 0.04 0.05 0.04 0.04 0.04 0.04 0.04 0.04 0.03 0.03 0.03 0.03 0.02 0.02 0.02 0.02 0.02 0.01 0.01 0.01 0.01 0.01 0.02 0.02 0.02 0.01 0.01 0.02 0.02 0.02 0.02 0.02 0.01
0.06 0.06 0.05 0.05 0.04 0.04 0.05 0.05 0.06 0.05 0.05 0.05 0.05 0.05 0.04 0.04 0.04 0.03 0.02 0.02 0.02 0.02 0.02 0.02 0.01 0.01 0.01 0.01 0.01 0.01 0.01 0.01 0.02 0.02 0.02 0.02 0.02 0.01
MSLP
1016.35 1016.48 1016.60 1016.71 1016.79 1016.82 1016.83 1016.81 1016.80 1016.81 1016.88 1017.00 1017.18 1017.41 1017.65 1017.88 1018.07 1018.18 1018.21 1018.14 1017.98 1017.76 1017.50 1017.21 1016.93 1016.65 1016.39 1016.11 1015.83 1015.51 1015.17 1014.80 1014.42 1014.04 1013.68 1013.36 1013.09 1012.87
1016.48 1016.62 1016.76 1016.86 1016.93 1016.95 1016.92 1016.88 1016.85 1016.85 1016.91 1017.03 1017.22 1017.46 1017.72 1017.96 1018.16 1018.28 1018.31 1018.25 1018.11 1017.91 1017.69 1017.45 1017.23 1017.01 1016.79 1016.56 1016.30 1016.00 1015.65 1015.27 1014.85 1014.43 1014.03 1013.67 1013.35 1013.08
1016.68 1016.83 1016.97 1017.07 1017.12 1017.12 1017.08 1017.02 1016.96 1016.95 1017.00 1017.11 1017.29 1017.52 1017.76 1017.98 1018.15 1018.25 1018.26 1018.19 1018.05 1017.88 1017.69 1017.51 1017.34 1017.19 1017.04 1016.87 1016.66 1016.40 1016.06 1015.67 1015.24 1014.80 1014.36 1013.95 1013.58 1013.24
1016.95 1017.10 1017.24 1017.34 1017.39 1017.38 1017.33 1017.26 1017.20 1017.18 1017.21 1017.31 1017.46 1017.65 1017.85 1018.01 1018.13 1018.17 1018.13 1018.03 1017.88 1017.71 1017.55 1017.41 1017.30 1017.21 1017.13 1017.03 1016.87 1016.65 1016.35 1015.97 1015.54 1015.08 1014.61 1014.15 1013.72 1013.32
1017.26 1017.43 1017.58 1017.69 1017.75 1017.75 1017.71 1017.65 1017.59 1017.56 1017.58 1017.65 1017.77 1017.90 1018.03 1018.13 1018.16 1018.13 1018.03 1017.87 1017.69 1017.50 1017.35 1017.23 1017.16 1017.12 1017.09 1017.03 1016.93 1016.74 1016.47 1016.11 1015.69 1015.22 1014.73 1014.24 1013.76 1013.28
1017.56 1017.76 1017.93 1018.07 1018.16 1018.19 1018.18 1018.15 1018.11 1018.09 1018.11 1018.15 1018.22 1018.30 1018.35 1018.36 1018.31 1018.19 1018.01 1017.79 1017.56 1017.35 1017.17 1017.06 1017.00 1016.97 1016.96 1016.93 1016.84 1016.67 1016.42 1016.08 1015.66 1015.19 1014.70 1014.18 1013.66 1013.13
1017.83 1018.05 1018.27 1018.45 1018.58 1018.66 1018.70 1018.71 1018.71 1018.71 1018.73 1018.76 1018.80 1018.82 1018.80 1018.73 1018.60 1018.39 1018.14 1017.85 1017.57 1017.31 1017.11 1016.97 1016.88 1016.84 1016.81 1016.75 1016.65 1016.48 1016.22 1015.88 1015.47 1015.00 1014.51 1013.99 1013.45 1012.88
1018.01 1018.28 1018.53 1018.77 1018.95 1019.10 1019.20 1019.26 1019.31 1019.34 1019.38 1019.40 1019.42 1019.40 1019.33 1019.20 1019.00 1018.73 1018.42 1018.08 1017.75 1017.44 1017.19 1017.00 1016.87 1016.77 1016.68 1016.57 1016.41 1016.20 1015.91 1015.55 1015.14 1014.68 1014.19 1013.67 1013.14 1012.56
1018.10 1018.40 1018.70 1018.98 1019.23 1019.44 1019.60 1019.72 1019.82 1019.90 1019.96 1020.00 1020.01 1019.97 1019.87 1019.71 1019.47 1019.17 1018.82 1018.45 1018.08 1017.74 1017.44 1017.19 1016.98 1016.80 1016.62 1016.42 1016.18 1015.89 1015.55 1015.16 1014.73 1014.27 1013.79 1013.30 1012.77 1012.20
1018.11 1018.44 1018.77 1019.09 1019.39 1019.65 1019.87 1020.05 1020.20 1020.32 1020.42 1020.48 1020.49 1020.46 1020.35 1020.18 1019.94 1019.64 1019.28 1018.91 1018.52 1018.15 1017.81 1017.50 1017.21 1016.94 1016.65 1016.35 1016.01 1015.63 1015.21 1014.77 1014.31 1013.85 1013.39 1012.91 1012.41 1011.86
1018.07 1018.41 1018.76 1019.11 1019.44 1019.74 1020.00 1020.23 1020.42 1020.58 1020.70 1020.79 1020.83 1020.81 1020.72 1020.57 1020.34 1020.06 1019.73 1019.37 1018.99 1018.62 1018.25 1017.89 1017.53 1017.17 1016.78 1016.37 1015.92 1015.45 1014.96 1014.46 1013.97 1013.50 1013.04 1012.58 1012.10 1011.56
1018.01 1018.35 1018.71 1019.07 1019.41 1019.73 1020.02 1020.27 1020.49 1020.68 1020.82 1020.93 1020.99 1021.00 1020.94 1020.81 1020.63 1020.38 1020.09 1019.76 1019.41 1019.05 1018.68 1018.29 1017.88 1017.45 1016.98 1016.48 1015.95 1015.39 1014.83 1014.28 1013.76 1013.27 1012.81 1012.35 1011.87 1011.34
1017.96 1018.29 1018.65 1019.00 1019.34 1019.66 1019.95 1020.21 1020.44 1020.64 1020.80 1020.93 1021.00 1021.03 1021.00 1020.91 1020.77 1020.57 1020.32 1020.04 1019.73 1019.39 1019.03 1018.64 1018.21 1017.75 1017.23 1016.67 1016.07 1015.46 1014.84 1014.25 1013.70 1013.19 1012.71 1012.25 1011.76 1011.21
1017.91 1018.24 1018.58 1018.91 1019.24 1019.54 1019.82 1020.07 1020.30 1020.50 1020.67 1020.80 1020.89 1020.94 1020.93 1020.88 1020.77 1020.61 1020.41 1020.18 1019.91 1019.61 1019.28 1018.90 1018.48 1018.01 1017.48 1016.90 1016.28 1015.64 1015.00 1014.38 1013.80 1013.26 1012.76 1012.27 1011.75 1011.16
1017.85 1018.17 1018.49 1018.80 1019.10 1019.38 1019.64 1019.87 1020.09 1020.28 1020.45 1020.58 1020.69 1020.75 1020.76 1020.73 1020.65 1020.53 1020.37 1020.17 1019.94 1019.69 1019.39 1019.06 1018.67 1018.23 1017.72 1017.16 1016.54 1015.90 1015.26 1014.63 1014.03 1013.46 1012.93 1012.39 1011.83 1011.19
1017.72 1018.03 1018.33 1018.62 1018.89 1019.15 1019.38 1019.60 1019.80 1019.99 1020.16 1020.31 1020.42 1020.49 1020.53 1020.51 1020.46 1020.36 1020.23 1020.06 1019.87 1019.65 1019.40 1019.11 1018.77 1018.38 1017.92 1017.40 1016.82 1016.21 1015.58 1014.96 1014.35 1013.76 1013.18 1012.60 1011.98 1011.28
1017.46 1017.77 1018.06 1018.33 1018.58 1018.81 1019.03 1019.24 1019.44 1019.63 1019.81 1019.97 1020.11 1020.20 1020.26 1020.27 1020.23 1020.15 1020.04 1019.90 1019.73 1019.55 1019.33 1019.09 1018.80 1018.46 1018.07 1017.61 1017.09 1016.52 1015.93 1015.31 1014.70 1014.09 1013.48 1012.85 1012.17 1011.41
1017.04 1017.35 1017.63 1017.89 1018.12 1018.34 1018.55 1018.76 1018.98 1019.19 1019.40 1019.59 1019.76 1019.89 1019.98 1020.02 1020.00 1019.94 1019.85 1019.72 1019.58 1019.41 1019.23 1019.02 1018.79 1018.50 1018.17 1017.77 1017.31 1016.80 1016.24 1015.65 1015.04 1014.41 1013.77 1013.10 1012.37 1011.56
1016.43 1016.74 1017.02 1017.27 1017.49 1017.71 1017.94 1018.17 1018.41 1018.66 1018.92 1019.16 1019.38 1019.57 1019.70 1019.78 1019.80 1019.76 1019.69 1019.58 1019.44 1019.29 1019.13 1018.95 1018.75 1018.51 1018.23 1017.88 1017.48 1017.01 1016.50 1015.93 1015.33 1014.69 1014.03 1013.33 1012.57 1011.73
1015.65 1015.96 1016.23 1016.48 1016.72 1016.95 1017.20 1017.46 1017.75 1018.06 1018.38 1018.69 1018.98 1019.23 1019.43 1019.56 1019.62 1019.62 1019.57 1019.47 1019.35 1019.21 1019.06 1018.89 1018.71 1018.50 1018.25 1017.95 1017.59 1017.16 1016.67 1016.13 1015.54 1014.91 1014.24 1013.52 1012.75 1011.91
1014.71 1015.02 1015.31 1015.57 1015.82 1016.08 1016.36 1016.67 1017.02 1017.39 1017.78 1018.17 1018.55 1018.87 1019.14 1019.34 1019.46 1019.50 1019.48 1019.40 1019.29 1019.16 1019.01 1018.85 1018.67 1018.48 1018.25 1017.97 1017.63 1017.24 1016.78 1016.26 1015.68 1015.06 1014.39 1013.68 1012.92 1012.10
1013.66 1013.99 1014.29 1014.58 1014.86 1015.16 1015.48 1015.84 1016.25 1016.69 1017.16 1017.63 1018.08 1018.49 1018.83 1019.10 1019.28 1019.37 1019.39 1019.34 1019.25 1019.12 1018.97 1018.81 1018.64 1018.45 1018.22 1017.96 1017.64 1017.26 1016.83 1016.33 1015.77 1015.17 1014.52 1013.83 1013.10 1012.31
1012.55 1012.90 1013.23 1013.55 1013.87 1014.22 1014.59 1015.01 1015.48 1015.98 1016.51 1017.05 1017.58 1018.06 1018.48 1018.81 1019.05 1019.20 1019.27 1019.26 1019.19 1019.07 1018.94 1018.78 1018.60 1018.41 1018.19 1017.93 1017.63 1017.27 1016.85 1016.38 1015.85 1015.27 1014.65 1014.00 1013.30 1012.58
Thickness
5667 5667 5666 5665 5664 5664 5663 5662 5659 5657 5658 5659 5658 5657 5656 5655 5653 5654 5655 5651 5650 5651 5651 5652 5654 5654 5654 5655 5656 5657 5657 5657 5657 5657 5657 5657 5658 5658
5662 5662 5662 5661 5660 5658 5658 5657 5656 5655 5654 5655 5653 5652 5650 5650 5648 5649 5649 5646 5645 5645 5645 5646 5647 5647 5648 5649 5650 5651 5651 5651 5651 5652 5652 5652 5653 5653
5660 5659 5658 5656 5655 5654 5653 5652 5651 5650 5648 5649 5648 5647 5645 5645 5643 5643 5643 5643 5642 5640 5640 5641 5641 5641 5642 5643 5645 5646 5646 5646 5646 5646 5646 5646 5647 5648
5657 5656 5654 5652 5650 5650 5647 5647 5646 5645 5643 5642 5642 5641 5640 5639 5638 5638 5638 5638 5638 5636 5635 5635 5635 5635 5636 5637 5638 5639 5639 5640 5640 5640 5640 5640 5641 5641
5653 5652 5651 5649 5646 5645 5643 5642 5641 5639 5637 5637 5636 5634 5634 5633 5631 5632 5633 5633 5633 5632 5630 5630 5630 5630 5630 5631 5632 5633 5633 5633 5633 5633 5633 5633 5634 5634
5649 5648 5647 5645 5643 5641 5639 5638 5636 5633 5631 5631 5630 5629 5628 5627 5626 5627 5628 5628 5628 5627 5627 5626 5625 5625 5625 5625 5626 5627 5627 5627 5626 5626 5626 5625 5626 5627
5645 5644 5642 5639 5636 5635 5634 5632 5630 5628 5626 5625 5625 5624 5623 5621 5621 5622 5622 5623 5623 5622 5623 5623 5622 5622 5622 5621 5620 5620 5620 5620 5620 5620 5619 5618 5619 5619
5640 5639 5637 5634 5630 5627 5625 5624 5622 5622 5622 5620 5620 5619 5620 5619 5617 5617 5617 5616 5617 5617 5616 5617 5618 5618 5618 5617 5616 5615 5614 5614 5614 5613 5613 5613 5612 5612
5636 5635 5632 5630 5626 5625 5621 5617 5616 5615 5614 5616 5616 5617 5616 5615 5613 5612 5612 5611 5612 5613 5610 5612 5613 5612 5613 5612 5611 5609 5608 5607 5607 5606 5606 5605 5605 5604
5630 5630 5629 5626 5623 5621 5620 5618 5616 5614 5611 5610 5612 5613 5611 5610 5608 5608 5607 5606 5607 5606 5604 5606 5608 5607 5608 5607 5605 5603 5602 5601 5600 5599 5599 5599 5597 5597
5625 5624 5623 5622 5618 5613 5613 5614 5613 5611 5606 5604 5603 5603 5601 5601 5600 5600 5600 5599 5600 5602 5599 5599 5602 5601 5602 5602 5600 5597 5596 5595 5594 5593 5592 5591 5590 5589
5618 5617 5614 5613 5611 5607 5608 5609 5608 5607 5604 5601 5599 5597 5597 5596 5594 5595 5595 5595 5596 5597 5595 5593 5595 5594 5595 5597 5595 5592 5590 5589 5588 5586 5585 5584 5583 5583
5611 5611 5610 5605 5603 5601 5601 5603 5602 5600 5600 5598 5597 5596 5594 5593 5591 5590 5590 5590 5590 5591 5590 5587 5587 5588 5588 5590 5589 5587 5586 5585 5583 5582 5580 5579 5578 5577
5604 5604 5603 5599 5597 5595 5595 5594 5593 5591 5593 5593 5592 5591 5590 5588 5587 5585 5584 5583 5583 5584 5583 5580 5580 5580 5581 5581 5583 5582 5580 5580 5579 5578 5577 5575 5573 5572
5596 5595 5593 5591 5589 5589 5588 5587 5585 5586 5587 5587 5587 5586 5584 5583 5580 5578 5577 5575 5575 5574 5574 5573 5573 5573 5573 5574 5576 5576 5574 5574 5574 5573 5573 5572 5570 5569
5586 5586 5584 5582 5582 5582 5582 5582 5581 5582 5582 5582 5581 5580 5578 5575 5573 5571 5569 5568 5567 5567 5566 5566 5565 5564 5565 5566 5567 5568 5569 5569 5569 5567 5567 5567 5566 5565
5578 5578 5578 5578 5577 5577 5577 5577 5577 5576 5575 5575 5574 5573 5571 5569 5567 5565 5563 5562 5562 5562 5561 5559 5558 5557 5557 5558 5559 5562 5562 5563 5563 5562 5560 5561 5562 5562
5570 5572 5572 5572 5572 5572 5571 5571 5570 5570 5569 5568 5567 5566 5564 5563 5561 5559 5556 5555 5555 5555 5555 5554 5551 5550 5550 5552 5552 5554 5556 5557 5557 5556 5555 5556 5558 5558
5561 5564 5564 5565 5565 5564 5564 5563 5563 5562 5561 5560 5559 5558 5557 5556 5554 5553 5551 5550 5549 5549 5549 5548 5546 5546 5547 5550 5553 5547 5548 5550 5549 5550 5550 5551 5553 5555
5554 5555 5556 5556 5556 5555 5555 5555 5554 5553 5552 5551 5550 5549 5548 5548 5547 5546 5545 5544 5544 5543 5543 5543 5542 5542 5543 5545 5546 5546 5541 5543 5543 5544 5545 5545 5545 5545
5545 5546 5547 5547 5548 5547 5546 5546 5545 5544 5543 5541 5540 5540 5539 5539 5539 5539 5538 5536 5535 5537 5538 5539 5539 5536 5536 5537 5539 5541 5539 5536 5537 5537 5538 5537 5538 5539
5536 5536 5537 5537 5537 5537 5537 5537 5536 5535 5534 5533 5532 5531 5530 5530 5531 5531 5531 5531 5531 5531 5532 5533 5532 5530 5529 5531 5534 5536 5535 5532 5530 5528 5529 5530 5531 5533
5527 5527 5527 5527 5527 5527 5526 5526 5527 5526 5525 5525 5524 5523 5522 5522 5522 5523 5523 5523 5524 5524 5524 5525 5525 5524 5524 5525 5526 5529 5529 5527 5525 5524 5524 5523 5522 5522